TIANMU-1 10

Last updated on Thu Oct 30 2025 00:02:23 GMT+0000 (Coordinated Universal Time)

1 57402U 23101D 25302.49864885 .00009704 00000+0 36730-3 0 9990 2 57402 97.2968 353.4845 0005794 228.3483 131.7260 15.27118148126397
UTC large
Height (km)
Speed (km/s)
/
Latitude / Longitude
Inclination (degrees)
Orbital Period (minutes)
Azimuth
Elevation
Range (km)
Doppler Factor

Next 0 passes for location: London (51.5072 / 0.1276)

Sorry there are no passes over London.